Weather History for KMNE - April, 2013

Change the Weather History Date:

Friday, April 19, 2013

  Actual Average (KBAD) Record (KBAD)
Temperature  
Mean Temperature 50 °F -  
Max Temperature 60 °F 75 °F 93 °F (2011)
Min Temperature 39 °F 54 °F 40 °F (2013)
Degree Days  
Heating Degree Days 16    
Moisture  
Dew Point 35 °F    
Average Humidity 63    
Maximum Humidity 93    
Minimum Humidity 33    
Precipitation  
Precipitation 0.00 in - - ()
Sea Level Pressure  
Sea Level Pressure 30.15 in    
Wind  
Wind Speed 7 mph (NW)    
Max Wind Speed 16 mph    
Max Gust Speed 25 mph    
Visibility 10 miles    
Events      
Averages and records for this station are not official NWS values.
T = Trace of Precipitation, MM = Missing Value Source: NWS Daily Summary

Daily Weather History Graph

Daily Weather History Graph

Search for Another Location

Airport or City:

Trip Planner

Search our weather history database for the weather conditions in past years. The results will help you decide how hot, cold, wet, or windy it might be!

Date:

Astronomy

Apr. 19, 2013 Rise Set
Actual Time 6:38 AM CDT 7:46 PM CDT
Civil Twilight 6:13 AM CDT 8:11 PM CDT
Nautical Twilight 5:42 AM CDT 8:42 PM CDT
Astronomical Twilight 5:11 AM CDT 9:13 PM CDT
Moon 1:51 PM CDT (4/19) 2:33 AM CDT (4/19)
Length of Visible Light 13h 58m
Length of Day
13h 07m
First Quarter, 62% of the Moon is Illuminated
Apr 19
First Quarter
Apr 25
Full
May 2
Last Quarter
May 9
New
May 17
First Quarter

Hourly Weather History & Observations

Time (CDT) Temp. Windchill Dew Point Humidity Pressure Visibility Wind Dir Wind Speed Gust Speed Precip Events Conditions
12:15 AM 46.0 °F 43.1 °F 42.3 °F 87% 30.06 in 10.0 mi NW 5.8 mph - N/A   Overcast
12:35 AM 45.9 °F 41.7 °F 41.4 °F 84% 30.07 in 10.0 mi NW 8.1 mph - N/A   Overcast
12:55 AM 45.1 °F 40.8 °F 39.7 °F 81% 30.07 in 10.0 mi NW 8.1 mph - N/A   Overcast
1:15 AM 44.1 °F 40.8 °F 39.2 °F 83% 30.08 in 10.0 mi NW 5.8 mph - N/A   Mostly Cloudy
1:35 AM 43.7 °F 40.3 °F 38.7 °F 82% 30.07 in 10.0 mi WNW 5.8 mph - N/A   Clear
1:55 AM 43.3 °F 40.7 °F 38.1 °F 82% 30.07 in 10.0 mi WNW 4.6 mph - N/A   Clear
2:15 AM 43.0 °F 40.3 °F 38.3 °F 84% 30.07 in 10.0 mi NW 4.6 mph - N/A   Clear
2:35 AM 42.8 °F 40.1 °F 38.3 °F 84% 30.06 in 10.0 mi WNW 4.6 mph - N/A   Clear
2:55 AM 42.3 °F 39.4 °F 38.3 °F 86% 30.06 in 10.0 mi NW 4.6 mph - N/A   Clear
3:15 AM 41.9 °F 40.0 °F 37.9 °F 86% 30.07 in 10.0 mi WNW 3.5 mph - N/A   Clear
3:35 AM 41.5 °F 39.6 °F 37.6 °F 86% 30.09 in 10.0 mi West 3.5 mph - N/A   Clear
3:55 AM 41.4 °F 38.4 °F 37.4 °F 86% 30.09 in 10.0 mi West 4.6 mph - N/A   Clear
4:15 AM 41.4 °F 37.6 °F 36.1 °F 82% 30.09 in 10.0 mi WNW 5.8 mph - N/A   Clear
4:35 AM 41.0 °F 38.0 °F 36.5 °F 84% 30.10 in 10.0 mi West 4.6 mph - N/A   Clear
4:55 AM 40.8 °F 36.2 °F 35.6 °F 82% 30.11 in 10.0 mi WNW 6.9 mph - N/A   Clear
5:15 AM 40.5 °F 36.5 °F 35.1 °F 81% 30.12 in 10.0 mi WNW 5.8 mph - N/A   Clear
5:35 AM 40.3 °F 36.3 °F 34.9 °F 81% 30.13 in 10.0 mi WNW 5.8 mph - N/A   Clear
5:55 AM 40.1 °F 34.7 °F 35.2 °F 83% 30.13 in 10.0 mi WNW 8.1 mph - N/A   Clear
6:15 AM 40.1 °F 34.7 °F 34.7 °F 81% 30.15 in 10.0 mi West 8.1 mph - N/A   Clear
6:35 AM 39.7 °F 34.9 °F 33.8 °F 79% 30.15 in 10.0 mi WNW 6.9 mph - N/A   Clear
6:55 AM 39.7 °F 33.7 °F 33.8 °F 79% 30.17 in 10.0 mi WNW 9.2 mph - N/A   Clear
7:15 AM 40.3 °F 34.9 °F 34.2 °F 79% 30.17 in 10.0 mi WNW 8.1 mph - N/A   Clear
7:35 AM 41.2 °F 36.0 °F 34.2 °F 76% 30.17 in 10.0 mi WNW 8.1 mph - N/A   Clear
7:55 AM 41.0 °F 36.4 °F 34.0 °F 76% 30.17 in 10.0 mi WNW 6.9 mph - N/A   Clear
8:15 AM 40.8 °F 35.0 °F 34.0 °F 77% 30.17 in 10.0 mi NW 9.2 mph - N/A   Clear
8:35 AM 41.9 °F 36.9 °F 34.3 °F 75% 30.17 in 10.0 mi NW 8.1 mph - N/A   Clear
8:55 AM 44.6 °F 38.8 °F 34.0 °F 66% 30.18 in 10.0 mi NW 11.5 mph 18.4 mph N/A   Clear
9:15 AM 45.7 °F 39.8 °F 33.1 °F 61% 30.18 in 10.0 mi NW 12.7 mph 17.3 mph N/A   Clear
9:35 AM 47.3 °F - 31.6 °F 55% 30.19 in 10.0 mi WNW 15.0 mph 21.9 mph N/A   Clear
9:55 AM 48.6 °F - 31.1 °F 51% 30.17 in 10.0 mi NNW 15.0 mph 21.9 mph N/A   Clear
10:15 AM 49.3 °F - 29.8 °F 47% 30.17 in 10.0 mi WNW 11.5 mph 21.9 mph N/A   Clear
10:35 AM 50.0 °F - 28.8 °F 44% 30.19 in 10.0 mi NW 15.0 mph 24.2 mph N/A   Clear
10:55 AM 50.0 °F - 28.9 °F 44% 30.19 in 10.0 mi NW 12.7 mph 20.7 mph N/A   Clear
11:15 AM 51.8 °F - 30.9 °F 45% 30.20 in 10.0 mi WNW 16.1 mph 24.2 mph N/A   Clear
11:35 AM 52.5 °F - 32.7 °F 47% 30.20 in 10.0 mi NNW 8.1 mph - N/A   Clear
11:55 AM 52.9 °F - 30.2 °F 42% 30.20 in 10.0 mi NNW 16.1 mph 20.7 mph N/A   Clear
12:15 PM 53.2 °F - 30.7 °F 42% 30.19 in 10.0 mi NNW 13.8 mph 20.7 mph N/A   Clear
12:35 PM 53.8 °F - 31.1 °F 42% 30.19 in 10.0 mi NW 10.4 mph 20.7 mph N/A   Clear
12:55 PM 54.3 °F - 31.6 °F 42% 30.18 in 10.0 mi West 10.4 mph 25.3 mph N/A   Clear
1:15 PM 54.9 °F - 31.3 °F 41% 30.17 in 10.0 mi NW 16.1 mph 19.6 mph N/A   Clear
1:35 PM 55.9 °F - 31.8 °F 40% 30.17 in 10.0 mi WNW 16.1 mph 24.2 mph N/A   Clear
1:55 PM 56.8 °F - 32.2 °F 39% 30.17 in 10.0 mi NW 12.7 mph 23.0 mph N/A   Clear
2:15 PM 58.3 °F - 33.8 °F 40% 30.16 in 10.0 mi NW 11.5 mph 17.3 mph N/A   Clear
2:35 PM 57.6 °F - 32.2 °F 38% 30.16 in 10.0 mi West 12.7 mph 19.6 mph N/A   Clear
2:55 PM 57.7 °F - 31.3 °F 37% 30.15 in 10.0 mi WNW 10.4 mph 19.6 mph N/A   Clear
3:15 PM 58.8 °F - 32.2 °F 37% 30.15 in 10.0 mi WNW 15.0 mph 20.7 mph N/A   Clear
3:35 PM 59.4 °F - 31.6 °F 35% 30.15 in 10.0 mi WNW 11.5 mph 18.4 mph N/A   Clear
3:55 PM 59.2 °F - 30.7 °F 34% 30.14 in 10.0 mi NW 12.7 mph 19.6 mph N/A   Clear
4:15 PM 59.0 °F - 30.4 °F 34% 30.13 in 10.0 mi NNW 12.7 mph 21.9 mph N/A   Clear
4:35 PM 60.1 °F - 32.0 °F 35% 30.14 in 10.0 mi NW 12.7 mph 18.4 mph N/A   Clear
4:55 PM 60.1 °F - 30.9 °F 33% 30.13 in 10.0 mi NW 13.8 mph 19.6 mph N/A   Clear
5:15 PM 59.4 °F - 30.7 °F 34% 30.14 in 10.0 mi NW 13.8 mph 18.4 mph N/A   Clear
5:35 PM 59.7 °F - 31.5 °F 34% 30.14 in 10.0 mi NW 9.2 mph - N/A   Clear
5:55 PM 59.2 °F - 30.9 °F 34% 30.14 in 10.0 mi NNW 11.5 mph 20.7 mph N/A   Clear
6:15 PM 59.0 °F - 31.5 °F 35% 30.14 in 10.0 mi WNW 5.8 mph - N/A   Clear
6:35 PM 58.5 °F - 30.2 °F 34% 30.14 in 10.0 mi NNW 5.8 mph - N/A   Clear
6:55 PM 57.6 °F - 31.3 °F 37% 30.15 in 10.0 mi NW 4.6 mph - N/A   Clear
7:15 PM 56.5 °F - 32.5 °F 40% 30.15 in 10.0 mi NW 3.5 mph - N/A   Clear
7:35 PM 54.7 °F - 34.3 °F 46% 30.15 in 10.0 mi Calm Calm - N/A   Clear
7:55 PM 51.3 °F - 37.0 °F 58% 30.16 in 10.0 mi Calm Calm - N/A   Clear
8:15 PM 49.6 °F - 38.7 °F 66% 30.17 in 10.0 mi Calm Calm - N/A   Clear
8:35 PM 48.0 °F - 40.1 °F 74% 30.17 in 10.0 mi Calm Calm - N/A   Clear
8:55 PM 47.3 °F - 40.5 °F 77% 30.18 in 10.0 mi Calm Calm - N/A   Clear
9:15 PM 46.6 °F - 40.5 °F 79% 30.19 in 10.0 mi Calm Calm - N/A   Clear
9:35 PM 46.0 °F - 40.3 °F 80% 30.20 in 10.0 mi Calm Calm - N/A   Clear
9:55 PM 44.8 °F - 40.5 °F 85% 30.20 in 10.0 mi Calm Calm - N/A   Clear
10:15 PM 44.1 °F - 40.3 °F 87% 30.20 in 10.0 mi Calm Calm - N/A   Clear
10:35 PM 44.1 °F - 41.2 °F 90% 30.21 in 10.0 mi Calm Calm - N/A   Clear
10:55 PM 43.3 °F - 40.6 °F 90% 30.21 in 10.0 mi Calm Calm - N/A   Clear
11:15 PM 42.6 °F - 40.1 °F 91% 30.21 in 10.0 mi Calm Calm - N/A   Clear
11:35 PM 41.9 °F - 39.6 °F 91% 30.21 in 10.0 mi Calm Calm - N/A   Clear
11:55 PM 41.4 °F - 39.4 °F 93% 30.22 in 10.0 mi Calm Calm - N/A   Clear